GW0552 Weather Reports


time (UTC)temp
C
wind
direction
speed
KPH
gust
KPH
rain 1hr
cm
rain 24hr
cm
rain mn
cm
humidity
%
barometer
mb
20260504180415 22 78 6.4 9.7 0.00 0.00 0.00 54 1007.4
20260504175912 22 127 4.8 4.8 0.00 0.00 0.00 57 1007.3
20260504175409 21 79 8.0 9.7 0.00 0.00 0.00 56 1006.8
20260504174907 21 137 14.5 16.1 0.00 0.00 0.00 55 1007.0
20260504174404 21 117 8.0 9.7 0.00 0.00 0.00 56 1006.8
20260504173901 21 147 11.3 14.5 0.00 0.00 0.00 56 1006.9
20260504173357 21 93 14.5 20.9 0.00 0.00 0.00 56 1007.0
20260504172855 21 137 11.3 16.1 0.00 0.00 0.00 59 1006.8
20260504172351 21 169 8.0 9.7 0.00 0.00 0.00 58 1007.1
20260504171847 21 138 1.6 3.2 0.00 0.00 0.00 61 1007.0
20260504171345 20 113 8.0 11.3 0.00 0.00 0.00 60 1007.1
20260504170842 20 127 11.3 14.5 0.00 0.00 0.00 59 1006.9
20260504170338 20 113 11.3 12.9 0.00 0.00 0.00 60 1007.4
20260504160257 18 124 6.4 8.0 0.00 0.00 0.00 68 1008.0
20260504150722 16 125 4.8 4.8 0.00 0.00 0.00 75 1009.2
20260504150219 16 132 4.8 4.8 0.00 0.00 0.00 74 1009.5
20260504141148 13 120 9.7 11.3 0.00 0.00 0.00 80 1009.4
20260504140645 13 134 9.7 16.1 0.00 0.00 0.00 81 1009.7
20260504140140 12 165 8.0 9.7 0.00 0.00 0.00 80 1009.8
20260504130609 13 165 8.0 9.7 0.00 0.00 0.00 70 1009.8
20260504130106 13 115 11.3 14.5 0.00 0.00 0.00 69 1009.4
20260504110456 5 127 0.0 0.0 0.00 0.00 0.00 96 1009.0
20260504100419 5 129 0.0 0.0 0.00 0.00 0.00 96 1009.1
20260504081812 5 132 0.0 0.0 0.00 0.00 0.00 96 1009.9
20260504081309 5 132 0.0 0.0 0.00 0.00 0.00 96 1010.0
20260504080805 5 133 0.0 0.0 0.00 0.00 0.00 96 1009.9
20260504080301 5 132 0.0 0.0 0.00 0.00 0.00 96 1009.9
20260504070229 6 132 0.0 0.0 0.00 0.00 0.00 93 1010.2
20260504060149 8 134 1.6 1.6 0.00 0.00 0.00 90 1010.7
20260504050618 9 128 3.2 3.2 0.00 0.00 0.00 88 1010.8
20260504050115 9 133 3.2 3.2 0.00 0.00 0.00 92 1011.2
20260504045612 9 138 3.2 3.2 0.00 0.00 0.00 92 1011.2
20260504045106 9 137 3.2 3.2 0.00 0.00 0.00 91 1011.4
20260504044605 9 137 1.6 1.6 0.00 0.00 0.00 90 1011.3
20260504044101 9 130 1.6 1.6 0.00 0.00 0.00 90 1011.3
20260504043558 9 151 3.2 3.2 0.00 0.00 0.00 89 1011.3
20260504043055 9 135 3.2 3.2 0.00 0.00 0.00 88 1011.6
20260504042552 9 108 4.8 8.0 0.00 0.00 0.00 89 1011.5
20260504042049 9 136 3.2 3.2 0.00 0.00 0.00 90 1011.6
20260504041545 9 137 3.2 3.2 0.00 0.00 0.00 92 1011.2
20260504041041 9 134 1.6 3.2 0.00 0.00 0.00 91 1011.6
20260504040539 9 140 3.2 3.2 0.00 0.00 0.00 90 1011.6
20260504040035 9 131 4.8 4.8 0.00 0.00 0.00 90 1011.7
20260504035532 9 140 0.0 0.0 0.00 0.00 0.00 88 1011.6
20260504035029 9 128 0.0 0.0 0.00 0.00 0.00 86 1011.9
20260504034527 9 139 0.0 0.0 0.00 0.00 0.00 86 1011.6
20260504034023 9 135 0.0 0.0 0.00 0.00 0.00 84 1011.7
20260504033521 10 141 0.0 0.0 0.00 0.00 0.00 85 1011.4
20260504033018 10 136 0.0 0.0 0.00 0.00 0.00 83 1011.3
20260504032515 10 136 0.0 0.0 0.00 0.00 0.00 81 1011.3
20260504032012 10 102 0.0 0.0 0.00 0.00 0.00 81 1011.5
20260504031509 10 131 0.0 0.0 0.00 0.00 0.00 79 1011.5
20260504031005 10 126 1.6 1.6 0.00 0.00 0.00 78 1011.7
20260504030503 10 130 0.0 0.0 0.00 0.00 0.00 78 1011.6
20260504025958 10 133 0.0 0.0 0.00 0.00 0.00 79 1011.7
20260504025455 10 146 3.2 3.2 0.00 0.00 0.00 78 1011.6
20260504024952 10 136 0.0 0.0 0.00 0.00 0.00 77 1011.5
20260504024449 10 132 0.0 0.0 0.00 0.00 0.00 76 1011.7
20260504023946 10 130 0.0 0.0 0.00 0.00 0.00 77 1011.5
20260504023443 10 133 0.0 0.0 0.00 0.00 0.00 75 1011.6
20260504022938 10 133 0.0 0.0 0.00 0.00 0.00 74 1011.5
20260504022435 10 133 0.0 0.0 0.00 0.00 0.00 75 1011.5
20260504021932 10 134 0.0 0.0 0.00 0.00 0.00 75 1011.5
20260504021429 10 133 0.0 0.0 0.00 0.00 0.00 75 1011.4
20260504020926 10 141 0.0 0.0 0.00 0.00 0.00 75 1011.1
20260504020423 10 139 3.2 3.2 0.00 0.00 0.00 75 1011.0
20260504015919 10 142 3.2 3.2 0.00 0.00 0.00 75 1011.1
20260504015415 10 140 3.2 3.2 0.00 0.00 0.00 74 1010.7
20260504014912 10 141 1.6 1.6 0.00 0.00 0.00 74 1010.7
20260504014408 10 138 3.2 4.8 0.00 0.00 0.00 74 1010.9
20260504013905 10 137 0.0 0.0 0.00 0.00 0.00 73 1010.8
20260504013403 10 137 0.0 0.0 0.00 0.00 0.00 71 1010.9
20260504012859 10 137 0.0 0.0 0.00 0.00 0.00 71 1010.8
20260504012357 10 137 0.0 0.0 0.00 0.00 0.00 71 1011.0
20260504011854 10 140 1.6 1.6 0.00 0.00 0.00 71 1011.0
20260504011351 10 136 1.6 1.6 0.00 0.00 0.00 72 1011.0
20260504010847 10 151 3.2 3.2 0.00 0.00 0.00 70 1011.0
20260504010342 10 138 1.6 1.6 0.00 0.00 0.00 70 1010.9
20260504005839 10 141 3.2 3.2 0.00 0.00 0.00 69 1011.1
20260504005336 11 140 3.2 3.2 0.00 0.00 0.00 68 1011.0
20260504004833 11 134 1.6 1.6 0.00 0.00 0.00 67 1011.0
20260504004331 11 137 1.6 1.6 0.00 0.00 0.00 66 1011.1
20260504003827 11 133 1.6 1.6 0.00 0.00 0.00 65 1011.0
20260504003324 11 137 1.6 1.6 0.00 0.00 0.00 63 1011.3
20260504002821 11 134 1.6 1.6 0.00 0.00 0.00 61 1011.0
20260504002318 11 136 1.6 3.2 0.00 0.00 0.00 61 1010.9
20260504001816 12 137 1.6 1.6 0.00 0.00 0.00 59 1010.9
20260504001313 12 136 1.6 3.2 0.00 0.00 0.00 59 1011.1
20260504000809 12 136 1.6 1.6 0.00 0.00 0.00 60 1011.0
20260504000306 12 135 0.0 0.0 0.00 0.00 0.00 57 1011.1
20260503235804 13 127 0.0 0.0 0.00 0.00 0.00 55 1011.2
20260503235304 13 136 0.0 0.0 0.00 0.00 0.00 50 1011.1
20260503234759 13 137 1.6 1.6 0.00 0.00 0.00 49 1010.6
20260503234257 14 133 0.0 0.0 0.00 0.00 0.00 48 1010.9
20260503233754 15 133 0.0 0.0 0.00 0.00 0.00 45 1010.9
20260503233249 15 134 0.0 1.6 0.00 0.00 0.00 47 1010.7
20260503232747 15 127 0.0 1.6 0.00 0.00 0.00 45 1010.9
20260503232244 15 131 1.6 1.6 0.00 0.00 0.00 45 1011.2
20260503231742 15 118 3.2 3.2 0.00 0.00 0.00 38 1011.1
20260503231239 16 142 3.2 3.2 0.00 0.00 0.00 40 1011.3
20260503230734 16 140 0.0 0.0 0.00 0.00 0.00 38 1011.3
20260503230232 16 138 0.0 0.0 0.00 0.00 0.00 38 1011.2
20260503225729 16 123 6.4 8.0 0.00 0.00 0.00 37 1011.4
20260503225229 16 158 1.6 8.0 0.00 0.00 0.00 36 1011.6
20260503224726 16 171 3.2 3.2 0.00 0.00 0.00 35 1011.5
20260503224224 16 114 3.2 4.8 0.00 0.00 0.00 37 1011.5
20260503223722 16 139 3.2 8.0 0.00 0.00 0.00 36 1011.6
20260503223219 16 117 4.8 4.8 0.00 0.00 0.00 34 1011.6
20260503222715 16 94 8.0 9.7 0.00 0.00 0.00 35 1011.7
20260503222213 16 140 4.8 4.8 0.00 0.00 0.00 35 1011.8
20260503221712 16 121 4.8 4.8 0.00 0.00 0.00 37 1011.7
20260503221209 16 125 6.4 9.7 0.00 0.00 0.00 36 1011.5
20260503220705 16 119 6.4 12.9 0.00 0.00 0.00 35 1011.5
20260503220202 17 126 6.4 8.0 0.00 0.00 0.00 36 1011.6
20260503215659 17 130 14.5 16.1 0.00 0.00 0.00 35 1011.6
20260503215155 17 132 0.0 1.6 0.00 0.00 0.00 35 1011.6
20260503214654 17 121 1.6 1.6 0.00 0.00 0.00 35 1011.6
20260503214149 17 115 4.8 4.8 0.00 0.00 0.00 35 1011.7
20260503213644 17 133 4.8 8.0 0.00 0.00 0.00 34 1011.4
20260503213140 17 163 4.8 8.0 0.00 0.00 0.00 36 1011.8
20260503212637 17 129 6.4 8.0 0.00 0.00 0.00 35 1012.1
20260503212135 17 95 6.4 8.0 0.00 0.00 0.00 38 1012.0
20260503211632 17 162 4.8 8.0 0.00 0.00 0.00 36 1011.9
20260503211127 17 168 4.8 8.0 0.00 0.00 0.00 39 1011.8
20260503210624 17 141 8.0 16.1 0.00 0.00 0.00 37 1012.1
20260503210120 17 131 6.4 8.0 0.00 0.00 0.00 35 1012.1
20260503205616 17 150 6.4 8.0 0.00 0.00 0.00 36 1011.9
20260503205113 18 154 0.0 1.6 0.00 0.00 0.00 36 1011.9
20260503204610 17 150 1.6 1.6 0.00 0.00 0.00 35 1012.3
20260503204107 17 109 3.2 3.2 0.00 0.00 0.00 35 1012.3
20260503203604 17 134 1.6 3.2 0.00 0.00 0.00 35 1012.2
20260503203101 17 155 3.2 3.2 0.00 0.00 0.00 34 1012.5
20260503202559 17 130 4.8 8.0 0.00 0.00 0.00 36 1012.2
20260503202057 17 105 8.0 9.7 0.00 0.00 0.00 35 1012.6
20260503201555 16 121 6.4 8.0 0.00 0.00 0.00 35 1012.8
20260503201052 17 138 8.0 9.7 0.00 0.00 0.00 35 1012.8
20260503200548 16 141 1.6 1.6 0.00 0.00 0.00 37 1012.9
20260503200044 16 132 6.4 9.7 0.00 0.00 0.00 40 1012.9
20260503195541 17 130 8.0 9.7 0.00 0.00 0.00 36 1012.9
20260503195038 16 130 0.0 0.0 0.00 0.00 0.00 37 1012.9
20260503194536 16 135 3.2 4.8 0.00 0.00 0.00 35 1013.1
20260503194035 17 136 4.8 4.8 0.00 0.00 0.00 35 1013.2
20260503193532 17 159 4.8 8.0 0.00 0.00 0.00 40 1013.2
20260503193027 16 130 1.6 1.6 0.00 0.00 0.00 37 1013.5
20260503192524 16 251 3.2 4.8 0.00 0.00 0.00 41 1013.6
20260503192020 16 126 0.0 1.6 0.00 0.00 0.00 36 1013.5
20260503191517 16 156 6.4 11.3 0.00 0.00 0.00 40 1013.5
20260503191014 17 143 6.4 8.0 0.00 0.00 0.00 39 1013.7
20260503190510 16 124 4.8 4.8 0.00 0.00 0.00 37 1013.9
20260503190008 15 67 0.0 0.0 0.00 0.00 0.00 41 1014.0
20260503185503 15 148 3.2 3.2 0.00 0.00 0.00 41 1014.0
20260503184958 15 124 0.0 1.6 0.00 0.00 0.00 37 1014.1
20260503184454 15 232 4.8 8.0 0.00 0.00 0.00 38 1014.1
20260503183951 15 120 3.2 3.2 0.00 0.00 0.00 38 1014.2
20260503183448 15 122 0.0 0.0 0.00 0.00 0.00 41 1014.3
20260503182944 15 140 0.0 1.6 0.00 0.00 0.00 38 1014.6
20260503182443 15 105 3.2 4.8 0.00 0.00 0.00 43 1014.6
20260503181940 16 355 9.7 14.5 0.00 0.00 0.00 37 1014.7
20260503181437 15 126 1.6 1.6 0.00 0.00 0.00 43 1015.0
20260503180933 15 34 4.8 8.0 0.00 0.00 0.00 43 1014.9